Location: Aggsbach Dorf
(48.2833°N, 15.4167°E)
Time: 00:12:12
(UTC+00:00)

Daily predictions for brighter satellites

Satellite Brightness Start Highest point End
(mag) Time Altitude Azimuth Time Altitude Azimuth Time Altitude Azimuth
Cosmos 2082 Rocket 4.4 02:10:56 21° ENE 02:10:56 21° ENE 02:13:52 10° E
Cosmos 2278 Rocket 3.8 02:31:44 30° E 02:31:44 30° E 02:36:14 10° NE
USA 215 3.9 02:25:42 10° ESE 02:30:30 51° E 02:30:30 51° E
Cosmos 1833 Rocket 4.3 02:52:14 27° SE 02:52:14 27° SE 02:54:45 10° SE
Cosmos 1464 Rocket 4.0 03:26:02 10° N 03:32:26 82° E 03:38:42 10° S
YAOGAN 6 4.4 03:29:31 10° NNE 03:32:53 32° E 03:36:12 10° SSE
COSMO-SKYMED 1 3.7 03:31:34 10° SE 03:35:40 43° ENE 03:37:26 28° NNE
CENTAUR R/B 4.4 03:32:31 10° SSE 03:37:16 27° ESE 03:42:43 10° ENE
Gbstr 26 Del rocket 3.4 03:45:48 52° ENE 03:45:48 52° ENE 03:49:07 10° ESE
H-2A R/B 3.9 03:41:42 10° NNE 03:45:12 40° E 03:48:42 10° S
COSMOS 2406 3.5 03:52:21 49° SW 03:52:21 49° SW 03:57:06 10° S
Meteor 2-2 Rocket 4.5 03:53:01 49° SW 03:53:01 49° SW 03:57:42 10° S
Cosmos 2082 Rocket 2.0 03:52:50 53° NW 03:54:10 79° WSW 03:59:46 10° SSE
Cosmos 2344 3.7 03:48:21 10° SSW 03:55:46 70° SE 04:03:30 10° NE
COSMOS 2455 3.2 03:57:05 42° SW 03:57:05 42° SW 04:02:13 10° S
Landsat 5 4.2 03:52:23 10° SSE 03:56:48 57° ENE 04:00:18 16° N
Cosmos 1842 Rocket 4.0 03:58:55 49° SSW 03:58:55 49° SSW 04:02:16 10° S
SL-24 R/B 4.3 03:53:49 10° N 03:59:09 76° WNW 04:02:33 19° SSW
Cosmos 1850 Rocket 4.0 03:54:58 16° SSW 03:59:17 89° ESE 04:04:41 10° NNE
MOS 1-B Rocket 4.0 04:03:36 10° S 04:10:19 71° WSW 04:16:13 10° NNW
Cosmos 2034 Rocket 3.9 04:07:42 10° NNW 04:13:54 72° W 04:20:06 10° S
Cosmos 1900 4.4 04:13:44 48° WNW 04:14:45 59° WSW 04:19:42 10° SSE
Cosmos 2278 Rocket 2.3 04:13:39 40° WSW 04:15:13 51° NW 04:20:46 10° NNE
USA 215 3.6 04:09:09 10° SSE 04:15:24 47° SW 04:17:51 33° W
Cosmos 1782 3.6 04:13:05 10° N 04:16:59 50° ENE 04:20:49 10° SSE
Cosmos 1943 Rocket 3.1 04:14:07 10° S 04:19:32 49° ESE 04:24:59 10° NE
CZ-2C R/B 2.6 04:14:42 10° S 04:20:16 76° WSW 04:25:44 10° NNW
BREEZE M DEB (TANK) 2.8 04:21:18 40° W 04:22:50 83° NNW 04:25:26 10° ENE
SKYMED 2 3.5 04:19:22 10° S 04:23:40 64° WSW 04:26:01 26° NNW
Cosmos 1816 Rocket 4.4 04:17:57 10° SSW 04:24:07 78° W 04:30:26 10° N
Cosmos 540 Rocket 3.8 04:25:25 37° W 04:26:15 40° WSW 04:31:01 10° S
IRAS Rocket 4.5 04:21:19 10° SSE 04:26:48 69° ENE 04:32:17 10° NNW
Cosmos 2221 4.2 04:32:04 18° SW 04:32:04 18° SW 04:33:28 10° SSW
Cosmos 1933 3.2 04:27:43 20° NNW 04:30:29 75° W 04:34:27 10° S
ADEOS 4.0 04:25:22 10° NNE 04:30:35 64° ESE 04:35:45 10° S
Cosmos 1833 Rocket 4.2 04:34:00 18° WSW 04:34:00 18° WSW 04:36:24 10° SW
Cosmos 1741 Rocket 4.1 04:30:12 10° SW 04:35:15 51° WNW 04:40:22 10° NNE
CZ-4B R/B 4.0 04:31:44 10° N 04:36:05 71° WNW 04:40:30 10° SSW
Tsikada Rocket 3.9 04:30:56 10° SSW 04:37:07 79° W 04:43:24 10° N
SL-8 R/B 3.6 04:35:05 30° WSW 04:37:26 87° S 04:42:15 10° E
Meteor 1-31 Rocket 2.6 04:33:47 10° N 04:37:37 67° WNW 04:41:29 10° SSW
Iridium 2 4.3 04:37:56 10° S 04:41:39 58° E 04:45:23 10° NNE
Cosmos 1634 Rocket 4.0 04:35:43 10° N 04:42:04 89° W 04:48:20 10° S
Cosmos 2151 2.9 04:38:24 10° SSW 04:42:39 65° WNW 04:46:57 10° N
Cosmos 1812 3.0 04:45:57 10° N 04:49:48 69° ENE 04:53:37 10° SSE
CZ-4C R/B 3.0 04:47:08 10° S 04:50:13 46° W 04:51:33 27° NW
Cosmos 841 Rocket 4.2 04:48:36 23° WNW 04:50:45 32° WSW 04:55:17 10° SSW
Meteor 2-13 Rocket 4.5 04:45:27 10° S 04:51:35 88° E 04:57:43 10° N
H-2A R/B 2.2 04:52:19 10° SSE 04:56:29 73° ENE 05:00:47 10° N
Cosmos 1939 Rocket 4.0 04:52:58 10° NNE 04:56:50 45° E 05:00:37 10° S
SMAP 4.5 04:53:27 10° NNE 04:57:54 42° E 05:02:17 10° S
Envisat 3.3 04:53:07 10° N 04:57:55 42° WNW 05:02:41 10° SW
Cosmos 2098 Rocket 2.9 04:54:54 10° S 04:58:15 70° E 05:02:25 10° NNE
Genesis I 3.7 04:57:08 15° NNW 05:00:30 60° NE 05:04:33 10° SE
Cosmos 1766 Rocket 4.1 04:57:01 10° S 05:01:18 60° E 05:05:35 10° NNE
Cosmos 1570 Rocket 4.4 05:01:27 12° NW 05:06:03 44° WSW 05:11:00 10° S
YAOGAN 6 3.8 05:03:16 10° NNW 05:06:09 22° WNW 05:09:01 10° WSW
DMSP B5D1-3 4.5 05:01:49 10° S 05:06:56 70° WSW 05:12:07 10° NNW
Cosmos 1076 Rocket 4.5 05:04:18 10° SW 05:07:57 26° WNW 05:11:38 10° NNW
DMSP B5D2-2 4.1 05:04:17 10° S 05:09:28 66° WSW 05:14:41 10° NNW
Cosmos 2369 Rocket 3.0 05:05:17 10° S 05:10:43 56° ESE 05:16:12 10° NE
COSMO-SKYMED 1 3.8 05:08:38 10° SW 05:12:01 22° W 05:14:38 14° NW
Aureole 1 Rocket 2.0 05:11:15 10° SSW 05:14:20 60° WNW 05:17:18 10° NNE
Cosmos 1867 3.8 05:10:50 13° NW 05:15:39 54° WSW 05:20:57 10° SSE
FALCON 9 DEB 3.5 05:14:16 10° SW 05:17:04 51° SSE 05:19:52 10° ENE
APEX 3.4 05:16:51 18° WNW 05:18:14 28° WSW 05:20:48 10° S
Cosmos 921 Rocket 3.0 05:14:00 10° NNW 05:18:20 68° WSW 05:22:43 10° S
H-2A R/B 4.1 05:16:30 10° NNW 05:19:02 18° WNW 05:21:35 10° WSW
Cosmos 2084 Rocket 3.2 05:15:32 10° SW 05:19:20 57° NW 05:23:11 10° NE
Cosmos 1328 Rocket 3.5 05:15:39 10° N 05:20:06 87° W 05:24:29 10° S
NOSS 3-2 (A) 3.4 05:14:51 10° SW 05:20:28 64° NW 05:27:05 10° NE
H-2A R/B 3.7 05:16:12 10° NNE 05:20:45 35° E 05:25:14 10° SSE
FALCON 9 DEB 3.0 05:20:05 10° SW 05:22:55 65° SSE 05:25:46 10° ENE
NOAA 12 4.1 05:18:28 10° NNE 05:23:47 83° WNW 05:29:03 10° SSW
NOSS 3-2 (C) 3.4 05:18:13 10° SW 05:23:49 88° SE 05:30:24 10° NE
PSLV R/B 4.4 05:19:57 10° SSE 05:23:56 62° ENE 05:27:58 10° N
Meteor 1-10 Rocket 4.3 05:18:35 10° N 05:24:14 81° ENE 05:29:46 10° SSE
FALCON 9 DEB 4.0 05:23:22 10° SW 05:26:09 42° SE 05:28:55 10° ENE
Cosmos 1151 Rocket 3.2 05:22:00 10° NNW 05:26:18 54° W 05:30:34 10° S
CENTAUR R/B 2.6 05:21:10 10° SW 05:27:09 72° NW 05:34:26 10° NE
Cosmos 968 Rocket 3.4 05:22:40 10° SSW 05:27:48 68° WNW 05:32:57 10° NNE
CZ-4B R/B 2.7 05:25:57 10° N 05:29:29 49° WNW 05:32:57 10° SSW
Meteor 2-6 Rocket 4.1 05:25:42 10° NNW 05:31:09 67° W 05:36:29 10° S
Gbstr 26 Del rocket 3.9 05:28:19 11° W 05:31:39 34° SW 05:35:41 10° SSE
Meteor 2-3 Rocket 4.3 05:27:01 10° SW 05:32:08 35° WNW 05:37:21 10° N
Cosmos 2227 Rocket 4.4 05:33:31 10° N 05:36:14 13° NNE 05:38:55 10° ENE
Cosmos 2082 Rocket 3.9 05:34:55 10° WNW 05:37:16 13° W 05:39:37 10° WSW
Meteor PRIRODA 4.3 05:36:58 10° N 05:40:15 33° WNW 05:43:30 10° SW
CZ-4B R/B 1.4 05:37:46 10° S 05:41:06 66° WSW 05:44:27 10° NNW
Cosmos 1408 Rocket 3.7 05:38:14 10° S 05:42:33 77° E 05:46:52 10° NNE
Cosmos 2297 4.0 05:37:46 10° SW 05:43:15 45° NW 05:48:46 10° NNE
USA 238 DEB 3.7 05:45:49 10° SW 05:52:17 63° NW 05:59:11 10° NE
USA 238 3.7 05:45:55 10° SW 05:52:23 64° NW 05:59:18 10° NE
